Weather Roundup
Issued by NWS

Home | Current Version | Previous Version | Text Only | Print | Product List | Glossary On
Versions: 1 2 3 4 5 6 7 8 9 10 11 12 13 14 15 16 17 18 19 20 21 22 23 24 25 26 27 28 29 30 31 32 33 34 35 36 37 38 39 40 41 42 43 44 45 46 47 48 49 50
000
NZUS99 KDVN 282310
HRRRRR
HOURLY WEATHER ROUNDUP
NATIONAL WEATHER SERVICE QUAD CITIES IA IL
600 PM CDT THU MAY 28 2020

Note: "Fair" indicates few or no clouds below 12,000 feet with
no significant weather and/or obstructions to visibility.
------------------------------------------------------------------

CITY           SKY/WX    TMP DP  RH WIND       PRES   REMARKS
BURLINGTON     CLOUDY    67  66  97 NW8       29.87R
CEDAR RAPIDS   CLOUDY    67  65  93 N9        29.91R
DAVENPORT      CLOUDY    67  62  84 N8        29.89R
DUBUQUE        CLOUDY    64  64 100 W8        29.90S
IOWA CITY      CLOUDY    67  63  87 NE3       29.91S
MOLINE         CLOUDY    70  61  73 N3        29.86R
------------------------------------------------------------------
The stations below are not NWS stations and are not subject to NWS
quality control.  Some stations do not report weather such as fog.
* - Stations that report TMP and DP in whole degrees Celsius, which
are then converted to Fahrenheit.
------------------------------------------------------------------

CITY           SKY/WX    TMP DP  RH WIND       PRES   REMARKS
CLINTON        LGT RAIN  66  65  96 NW9       29.89S
FAIRFIELD *    MOSUNNY   66  66 100 W7        29.92S
FORT MADISON * LGT RAIN  64  64 100 NW15      29.89S
FREEPORT       CLOUDY    65  65  99 NW9       29.88S
INDEPENDENCE   CLOUDY    70  57  62 N10       29.92F
KEOKUK *       LGT RAIN  64  64 100 NW12      29.88F
MACOMB         CLOUDY    70  64  79 W6        29.88F
MONTICELLO *   RAIN      64  64 100 NW3       29.91R
MT PLEASANT *  RAIN      64  64 100 NW6       29.90S
MUSCATINE *    RAIN      64  64 100 NE7       29.89S
SAVANNA *      DRIZZLE   64  64 100 CALM      29.88S
STERLING/R.F.  CLOUDY    68  64  87 NW13      29.86R
VINTON         CLOUDY    71  59  66 N3        29.92F
WASHINGTON *   CLOUDY    66  66 100 N5        29.90S
------------------------------------------------------------------




USA.gov is the U.S. government's official web portal to all federal, state and local government web resources and services.